SCP
0 0 -0 -0 -0 -0 -0 -0 -0 -0 -0 -0 -0 -0 -0 -0 -0 0 0 0 0 0 -0 -0 -0 -0 -0 -0 -0 -0 -0 -0 -0 -0 -0 -0 -0 -0 -0 -0 -0 0 -0
-0 -0 -0 -0 -0 -0 -0 -0 -0 -0 -0 -0 -0 -0 -0 -0 -0 0 0 0 0 0 -0 -0 -0 -0 -0 -0 -0 -0 -0 -0 -0 -0 0 0 -0 -0 -0 0 0 0 0
-0 -0 -0 -0 -0 -0 -0 -0 -0 -0 -0 -0 -0 -0 -0 -0 -0 -0 0 0 0 0 0 -0 -0 -0 -0 -0 -0 -0 -0 -0 -0 -0 -0 -0 -0 0 0 0 0 0 0
0 0 -0 -0 -0 -0 -0 -0 -0 0 -0 -0 -0 -0 -0 -0 -0 -0 -0 0 0 0 0 0 0 0 -0 -0 -0 -0 -0 -0 -0 -0 -0 -0 0 0 0 0 0 0 0
0 0 0 0 0 -0 -0 -0 -0 -0 -0 -0 -0 0 0 -0 -0 -0 -0 0 0 0 0 0 0 0 0 0 -0 0 -0 0 0 -0 0 -0 -0 0 0 0 0 0 0
0 0 0 0 -0 -0 -0 -0 -0 -0 0 0 0 0 0 -0 -0 -0 -0 0 0 0 0 0 0 0 0 0 0 0 0 0 -0 0 0 0 0 0 0 0 0 0 0
-0 0 -0 0 0 -0 -0 -0 0 0 0 0 0 0 0 0 0 -0 0 -0 -0 0 0 0 0 0 0 0 0 0 0 0 0 0 0 0 0 0 0 0 0 0 0
-0 -0 -0 0 0 0 0 0 0 0 0 0 0 0 0 0 0 0 0 0 0 0 0 0 0 0 0 0 0 0 0 0 0 0 0 0 0 0 0 0 0 0 0
-0 -0 -0 -0 -0 0 0 0 0 0 0 0 0 0 0 0 0 0 0 0 0 0 0 0 0 0 0 0 0 0 0 0 0 0 0 0 0 0 0 0 0 0 0
0 0 -0 -0 -0 -0 0 0 0 0 0 0 0 0 0 0 0 0 0 0 0 0 0 0 0 0 0 0 0 0 0 0 0 0 0 0 0 -0 -0 0 0 0 0
0 0 0 0 0 -0 -0 0 0 0 0 0 0 0 0 0 0 0 0 0 0 0 0 0 0 0 0 0 0 0 0 0 0 0 0 0 -0 -0 -0 -0 -0 0 0
-0 -0 0 0 0 0 0 0 0 0 0 0 0 0 0 0 0 0 0 0 0 0 0 0 0 0 0 0 0 0 0 0 0 0 0 0 0 -0 -0 -0 -0 -0 0
-0 -0 -0 -0 0 0 0 0 0 0 0 0 0 0 0 0 0 0 0 0 0 0 0 0 0 0 0 0 0 0 0 0 0 0 0 0 0 0 0 -0 -0 0 0
-0 -0 -0 -0 -0 -0 0 0 0 0 0 0 0 0 0 0 0 0 0 0 0 0 0 0 0 0 0 0 0 0 0 0 0 0 0 -0 0 0 0 -0 0 0 0
-0 -0 -0 0 0 0 0 0 0 0 0 0 0 0 0 0 0 0 0 0 0 0 0 0 0 0 0 0 0 0 0 0 0 0 0 0 -0 -0 0 0 0 0 0
-0 -0 -0 -0 0 0 0 0 0 0 0 0 0 0 0 0 0 0 0 0 0 0 0 0 0 0 0 0 0 0 0 0 0 0 0 0 0 0 0 0 0 0 0
0 0 0 -0 -0 0 0 0 0 0 0 0 0 0 0 0 0 0 0 0 0 0 0 0 0 0 0 0 0 0 0 0 0 0 0 0 0 0 0 0 0 0 0
0 0 0 0 0 0 0 0 0 0 0 0 0 0 0 0 0 0 0 0 0 0 0 0 0 0 0 0 0 0 0 0 0 0 0 0 0 0 0 0 0 0 0
0 0 0 0 0 0 0 0 0 0 0 0 0 0 0 0 0 0 0 0 0 0 0 0 0 0 0 0 0 0 0 0 0 0 0 0 0 0 0 0 0 0 0
0 0 0 0 0 0 0 0 0 0 0 0 0 0 0 0 0 0 0 0 0 0 0 0 0 0 0 0 0 0 0 0 0 0 0 0 0 0 0 0 0 0 0
0 0 0 0 0 0 0 0 0 0 0 0 0 0 0 0 0 0 0 0 0 0 0 0 0 0 0 0 0 0 0 0 0 0 0 0 0 0 0 0 0 0 0
0 0 0 0 0 0 0 0 0 0 0 0 0 0 0 0 0 0 0 0 0 0 0 0 0 0 0 0 0 0 0 0 0 0 0 0 0 0 0 0 0 0 0
0 0 0 0 0 0 0 0 0 0 0 0 0 0 0 0 0 0 0 0 0 0 0 0 0 0 0 0 0 0 0 0 0 0 0 0 0 0 0 0 0 0 0
0 0 0 0 0 0 0 0 0 0 0 0 0 0 0 0 0 0 0 0 0 0 0 0 0 0 0 0 0 0 0 0 0 0 0 0 0 0 0 0 0 0 0
0 0 0 0 0 0 0 0 0 0 0 0 0 0 0 0 0 0 0 0 0 0 0 0 0 0 0 0 0 0 0 0 0 0 0 0 0 0 0 0 0 0 0
0 0 0 0 0 0 0 0 0 0 0 0 0 0 0 0 0 0 0 0 0 0 0 0 0 0 0 0 0 0 0 0 0 0 0 0 0 0 0 0 0 0 0
Wind_Speed_500mb
43 45 45 36 29 26 29 31 31 29 29 32 35 34 32 30 23 19 17 14 14 17 19 18 16 16 20 27 30 29 31 28 24 19 19 20 19 20 23 25 29 23 26
49 48 46 40 31 33 32 30 31 30 31 35 34 31 29 26 19 15 10 7 10 15 17 16 13 17 19 22 25 24 23 19 16 18 18 16 16 19 21 24 24 23 23
51 49 46 39 36 38 34 31 30 33 35 35 34 30 25 20 16 12 10 11 16 19 18 18 19 22 23 27 25 23 20 17 16 17 20 17 19 18 20 19 21 21 21
49 49 46 41 42 40 36 34 33 34 32 33 29 26 20 15 12 10 14 17 20 22 25 25 23 24 24 27 26 25 21 17 14 13 15 17 15 18 18 18 18 17 19
49 45 45 43 43 38 36 35 34 35 33 30 28 25 19 15 13 15 21 22 21 22 22 23 21 22 22 23 23 21 19 18 17 15 15 14 13 14 15 14 15 14 14
47 45 44 43 42 38 36 34 32 28 22 18 24 25 19 16 15 20 20 24 21 21 20 20 18 18 18 19 19 18 16 15 15 14 14 15 15 8 10 10 11 11 10
46 43 45 44 41 38 36 35 32 29 20 17 14 16 18 19 22 24 20 16 14 19 18 18 16 14 13 13 13 12 11 11 11 11 11 11 9 4 6 8 9 9 7
46 47 47 43 41 39 35 35 32 29 23 16 13 12 18 19 20 16 17 23 18 13 18 15 13 11 9 7 5 5 5 6 6 5 5 4 2 2 5 7 8 7 6
45 48 45 42 39 38 38 37 34 31 27 25 19 18 19 23 22 19 19 28 25 17 13 14 14 11 8 6 4 2 1 1 2 3 3 3 4 6 7 9 8 8 7
46 46 42 40 40 39 40 35 34 33 31 30 27 26 22 24 23 18 16 24 25 21 16 15 14 11 10 8 7 6 6 7 7 8 8 10 10 10 11 12 14 12 11
49 50 44 43 40 37 38 35 33 33 32 32 32 33 33 22 20 19 17 19 19 18 18 17 16 14 14 13 13 13 13 13 14 15 14 15 15 15 16 15 16 17 18
57 55 52 47 44 41 38 36 35 34 32 32 30 31 34 25 24 22 21 21 20 16 14 17 18 17 14 14 15 16 17 19 19 19 19 19 20 19 19 20 20 20 21
57 58 56 51 47 44 41 37 35 34 34 33 31 28 27 26 24 25 23 23 23 22 21 21 20 19 19 18 18 19 20 21 22 22 21 22 23 23 23 24 25 26 27
56 57 57 55 52 49 44 40 36 35 32 30 30 29 27 26 25 24 23 23 24 24 24 24 23 22 21 21 21 22 23 24 25 27 26 25 27 28 29 30 30 31 32
52 54 57 56 55 52 50 46 42 37 34 30 29 29 29 27 25 24 23 24 25 25 23 23 24 23 23 24 25 25 25 26 28 32 32 30 31 33 34 34 34 35 36
49 51 52 56 55 53 52 50 47 42 37 34 33 32 31 30 28 28 26 26 27 27 27 26 26 27 29 29 28 28 28 29 30 33 37 37 34 35 37 38 39 39 40
49 49 50 54 53 54 51 50 49 45 40 39 36 35 35 34 33 32 31 31 30 29 28 29 29 30 31 32 32 33 34 34 35 36 38 39 37 34 33 35 38 39 41
49 51 48 49 52 51 51 47 49 48 45 41 38 36 36 35 33 33 34 34 32 33 33 33 32 33 34 33 33 32 34 37 37 38 38 38 37 36 35 32 34 36 37
53 51 48 46 48 49 48 47 43 44 45 41 38 37 33 31 28 28 29 29 30 33 35 35 36 37 35 35 36 38 39 40 39 39 37 36 36 34 33 30 26 23 22
53 54 49 49 48 47 48 48 46 44 44 43 42 39 35 32 29 28 25 22 27 32 37 35 32 33 34 35 38 39 42 44 41 41 41 36 30 27 26 20 24 27 27
53 56 55 55 55 54 55 55 53 51 44 45 44 42 41 38 35 33 31 30 31 29 27 26 29 31 35 36 41 43 32 34 28 22 29 12 12 22 26 32 31 28 31
59 59 59 59 57 60 61 58 56 52 50 48 45 40 36 35 35 38 36 34 34 36 37 34 36 37 37 31 34 31 19 16 23 11 14 34 24 29 26 31 31 33 30
54 63 64 62 59 60 61 60 57 54 53 50 49 42 38 37 36 37 37 37 37 40 42 42 42 42 43 36 27 21 12 11 17 21 20 33 25 39 36 27 28 30 37
48 52 59 61 60 59 59 62 63 58 57 51 45 37 29 26 30 32 33 34 36 40 44 43 42 44 45 45 42 38 38 37 25 28 26 31 36 40 36 36 36 37 40
53 51 51 57 59 59 58 59 60 60 57 50 50 44 39 34 32 31 31 33 37 39 42 45 39 47 46 48 46 44 44 44 44 43 46 37 35 39 38 40 40 41 42
51 54 56 49 50 55 54 56 58 58 55 58 57 51 47 40 37 37 38 39 39 39 37 38 37 41 41 44 49 48 48 38 32 37 44 43 44 36 34 32 38 37 42
Wind_Direction_500mb
172 172 170 174 169 164 153 153 156 154 151 145 143 137 139 139 141 140 135 137 156 153 152 143 133 117 105 117 125 114 114 111 95 95 88 84 79 66 57 58 67 67 85
169 170 170 173 167 158 150 148 149 150 148 143 144 145 148 149 155 165 154 142 141 153 151 160 137 117 97 119 129 134 125 112 98 98 92 72 71 59 56 57 64 66 76
170 166 167 171 164 157 160 151 149 148 145 144 146 153 158 161 171 176 170 146 136 133 134 145 137 116 97 117 118 120 123 117 109 100 92 78 68 62 55 55 59 66 67
171 167 167 168 165 160 164 158 153 147 150 157 157 163 168 173 186 177 152 138 130 132 137 136 139 118 105 108 115 112 110 114 115 101 84 80 66 59 55 57 57 61 65
171 167 169 167 165 166 168 165 160 156 163 163 164 167 169 171 169 162 147 141 136 138 139 137 134 124 114 111 112 115 109 101 96 85 85 96 76 49 50 52 51 59 67
168 169 167 167 166 173 173 170 169 167 169 173 165 167 166 162 155 135 135 143 142 143 144 145 143 132 124 118 116 112 107 100 88 80 85 92 102 36 25 39 48 55 61
169 170 169 170 169 174 176 175 175 172 165 162 169 155 159 159 154 142 151 146 151 154 158 152 151 148 140 131 124 114 104 92 85 79 83 92 116 144 9 35 42 48 51
172 173 172 176 172 173 174 176 178 178 175 175 184 190 176 174 163 176 168 159 165 172 160 164 167 168 163 153 133 105 84 78 68 62 60 60 55 359 8 16 20 23 26
176 176 173 177 174 172 177 178 182 185 183 185 193 196 187 184 184 192 192 173 177 176 157 179 187 191 194 193 188 192 305 347 344 315 309 307 300 306 321 327 338 343 340
178 180 175 178 180 177 181 187 191 195 194 196 196 204 202 199 190 195 198 199 200 207 203 195 203 210 220 234 249 263 274 279 280 283 287 284 289 297 303 302 301 309 314
184 185 183 182 182 182 184 189 195 199 204 208 211 210 217 212 195 210 210 216 215 208 204 204 213 223 231 242 254 262 271 278 287 290 290 288 287 285 285 289 290 291 298
188 190 192 192 191 188 190 192 196 201 205 207 207 207 214 212 203 211 226 225 228 224 215 215 221 224 234 247 264 270 275 280 286 289 290 288 285 284 283 282 287 288 284
192 194 196 196 198 200 200 199 203 206 206 206 211 213 214 216 217 219 225 225 229 236 241 244 251 252 250 253 260 270 274 279 283 285 286 286 284 284 286 284 285 286 285
198 200 200 201 202 203 207 209 210 211 214 217 217 217 217 221 223 224 226 228 229 235 239 247 251 253 256 258 262 268 273 278 282 283 283 282 283 283 283 284 286 287 286
206 206 206 205 207 208 209 211 214 216 219 221 223 224 225 227 227 229 233 238 241 244 247 253 255 254 257 264 271 275 277 277 279 283 284 281 282 284 285 286 287 287 287
212 214 211 210 211 213 214 216 218 218 220 223 227 229 229 232 233 236 236 239 241 244 248 250 252 254 261 268 274 278 280 280 279 281 285 288 286 285 287 288 287 287 286
214 215 216 213 213 215 218 221 221 223 225 228 232 234 235 235 235 239 243 245 248 250 250 253 255 259 264 269 272 275 278 278 280 282 286 290 294 293 288 287 286 285 284
216 218 217 217 216 218 221 224 225 225 226 231 235 237 237 239 240 243 247 248 249 251 252 253 257 263 267 269 274 278 281 281 281 283 287 292 294 294 293 289 288 290 290
221 221 221 218 217 217 221 226 228 227 228 229 229 230 231 233 236 242 249 251 251 250 251 253 256 260 264 272 279 284 284 284 285 286 288 289 286 286 286 290 291 292 299
224 225 225 224 221 218 220 222 225 226 228 228 229 230 232 236 237 243 251 256 260 259 255 258 264 269 274 277 282 283 286 286 292 291 290 288 287 282 283 273 287 288 292
228 227 224 226 222 220 220 221 223 225 227 232 232 233 235 239 243 246 252 255 266 274 275 265 266 269 274 272 279 284 288 289 293 283 285 266 286 290 285 288 287 284 288
234 232 229 227 227 224 225 227 229 230 229 234 236 239 242 244 246 249 250 256 260 270 271 263 265 272 274 279 272 288 299 294 300 241 260 284 289 288 294 293 290 288 286
236 236 234 231 230 229 228 230 230 233 237 237 238 238 239 241 245 251 255 258 260 263 264 262 263 265 271 275 269 254 282 268 295 283 292 296 294 307 304 294 292 287 289
241 238 236 234 234 233 229 232 235 236 239 239 238 235 231 232 241 247 249 255 256 262 266 267 264 264 265 266 268 269 267 273 277 289 282 291 291 303 304 295 291 290 291
238 235 234 234 233 233 232 233 237 237 239 241 239 234 230 225 232 238 244 252 255 257 265 267 261 260 261 265 268 270 270 270 265 266 282 286 285 289 291 289 291 288 290
239 235 232 231 231 231 233 232 234 238 235 238 241 240 238 233 232 238 248 254 254 257 263 268 261 258 260 264 266 267 266 259 268 268 273 280 286 280 283 284 293 297 297
Wind_Speed_850mb
43 45 45 36 29 26 29 31 31 29 29 32 35 34 32 30 23 19 17 14 14 17 19 18 16 16 20 27 30 29 31 28 24 19 19 20 19 20 23 25 29 23 26
49 48 46 40 31 33 32 30 31 30 31 35 34 31 29 26 19 15 10 7 10 15 17 16 13 17 19 22 25 24 23 19 16 18 18 16 16 19 21 24 24 23 23
51 49 46 39 36 38 34 31 30 33 35 35 34 30 25 20 16 12 10 11 16 19 18 18 19 22 23 27 25 23 20 17 16 17 20 17 19 18 20 19 21 21 21
49 49 46 41 42 40 36 34 33 34 32 33 29 26 20 15 12 10 14 17 20 22 25 25 23 24 24 27 26 25 21 17 14 13 15 17 15 18 18 18 18 17 19
49 45 45 43 43 38 36 35 34 35 33 30 28 25 19 15 13 15 21 22 21 22 22 23 21 22 22 23 23 21 19 18 17 15 15 14 13 14 15 14 15 14 14
47 45 44 43 42 38 36 34 32 28 22 18 24 25 19 16 15 20 20 24 21 21 20 20 18 18 18 19 19 18 16 15 15 14 14 15 15 8 10 10 11 11 10
46 43 45 44 41 38 36 35 32 29 20 17 14 16 18 19 22 24 20 16 14 19 18 18 16 14 13 13 13 12 11 11 11 11 11 11 9 4 6 8 9 9 7
46 47 47 43 41 39 35 35 32 29 23 16 13 12 18 19 20 16 17 23 18 13 18 15 13 11 9 7 5 5 5 6 6 5 5 4 2 2 5 7 8 7 6
45 48 45 42 39 38 38 37 34 31 27 25 19 18 19 23 22 19 19 28 25 17 13 14 14 11 8 6 4 2 1 1 2 3 3 3 4 6 7 9 8 8 7
46 46 42 40 40 39 40 35 34 33 31 30 27 26 22 24 23 18 16 24 25 21 16 15 14 11 10 8 7 6 6 7 7 8 8 10 10 10 11 12 14 12 11
49 50 44 43 40 37 38 35 33 33 32 32 32 33 33 22 20 19 17 19 19 18 18 17 16 14 14 13 13 13 13 13 14 15 14 15 15 15 16 15 16 17 18
57 55 52 47 44 41 38 36 35 34 32 32 30 31 34 25 24 22 21 21 20 16 14 17 18 17 14 14 15 16 17 19 19 19 19 19 20 19 19 20 20 20 21
57 58 56 51 47 44 41 37 35 34 34 33 31 28 27 26 24 25 23 23 23 22 21 21 20 19 19 18 18 19 20 21 22 22 21 22 23 23 23 24 25 26 27
56 57 57 55 52 49 44 40 36 35 32 30 30 29 27 26 25 24 23 23 24 24 24 24 23 22 21 21 21 22 23 24 25 27 26 25 27 28 29 30 30 31 32
52 54 57 56 55 52 50 46 42 37 34 30 29 29 29 27 25 24 23 24 25 25 23 23 24 23 23 24 25 25 25 26 28 32 32 30 31 33 34 34 34 35 36
49 51 52 56 55 53 52 50 47 42 37 34 33 32 31 30 28 28 26 26 27 27 27 26 26 27 29 29 28 28 28 29 30 33 37 37 34 35 37 38 39 39 40
49 49 50 54 53 54 51 50 49 45 40 39 36 35 35 34 33 32 31 31 30 29 28 29 29 30 31 32 32 33 34 34 35 36 38 39 37 34 33 35 38 39 41
49 51 48 49 52 51 51 47 49 48 45 41 38 36 36 35 33 33 34 34 32 33 33 33 32 33 34 33 33 32 34 37 37 38 38 38 37 36 35 32 34 36 37
53 51 48 46 48 49 48 47 43 44 45 41 38 37 33 31 28 28 29 29 30 33 35 35 36 37 35 35 36 38 39 40 39 39 37 36 36 34 33 30 26 23 22
53 54 49 49 48 47 48 48 46 44 44 43 42 39 35 32 29 28 25 22 27 32 37 35 32 33 34 35 38 39 42 44 41 41 41 36 30 27 26 20 24 27 27
53 56 55 55 55 54 55 55 53 51 44 45 44 42 41 38 35 33 31 30 31 29 27 26 29 31 35 36 41 43 32 34 28 22 29 12 12 22 26 32 31 28 31
59 59 59 59 57 60 61 58 56 52 50 48 45 40 36 35 35 38 36 34 34 36 37 34 36 37 37 31 34 31 19 16 23 11 14 34 24 29 26 31 31 33 30
54 63 64 62 59 60 61 60 57 54 53 50 49 42 38 37 36 37 37 37 37 40 42 42 42 42 43 36 27 21 12 11 17 21 20 33 25 39 36 27 28 30 37
48 52 59 61 60 59 59 62 63 58 57 51 45 37 29 26 30 32 33 34 36 40 44 43 42 44 45 45 42 38 38 37 25 28 26 31 36 40 36 36 36 37 40
53 51 51 57 59 59 58 59 60 60 57 50 50 44 39 34 32 31 31 33 37 39 42 45 39 47 46 48 46 44 44 44 44 43 46 37 35 39 38 40 40 41 42
51 54 56 49 50 55 54 56 58 58 55 58 57 51 47 40 37 37 38 39 39 39 37 38 37 41 41 44 49 48 48 38 32 37 44 43 44 36 34 32 38 37 42
Wind_Direction_850mb
172 172 170 174 169 164 153 153 156 154 151 145 143 137 139 139 141 140 135 137 156 153 152 143 133 117 105 117 125 114 114 111 95 95 88 84 79 66 57 58 67 67 85
169 170 170 173 167 158 150 148 149 150 148 143 144 145 148 149 155 165 154 142 141 153 151 160 137 117 97 119 129 134 125 112 98 98 92 72 71 59 56 57 64 66 76
170 166 167 171 164 157 160 151 149 148 145 144 146 153 158 161 171 176 170 146 136 133 134 145 137 116 97 117 118 120 123 117 109 100 92 78 68 62 55 55 59 66 67
171 167 167 168 165 160 164 158 153 147 150 157 157 163 168 173 186 177 152 138 130 132 137 136 139 118 105 108 115 112 110 114 115 101 84 80 66 59 55 57 57 61 65
171 167 169 167 165 166 168 165 160 156 163 163 164 167 169 171 169 162 147 141 136 138 139 137 134 124 114 111 112 115 109 101 96 85 85 96 76 49 50 52 51 59 67
168 169 167 167 166 173 173 170 169 167 169 173 165 167 166 162 155 135 135 143 142 143 144 145 143 132 124 118 116 112 107 100 88 80 85 92 102 36 25 39 48 55 61
169 170 169 170 169 174 176 175 175 172 165 162 169 155 159 159 154 142 151 146 151 154 158 152 151 148 140 131 124 114 104 92 85 79 83 92 116 144 9 35 42 48 51
172 173 172 176 172 173 174 176 178 178 175 175 184 190 176 174 163 176 168 159 165 172 160 164 167 168 163 153 133 105 84 78 68 62 60 60 55 359 8 16 20 23 26
176 176 173 177 174 172 177 178 182 185 183 185 193 196 187 184 184 192 192 173 177 176 157 179 187 191 194 193 188 192 305 347 344 315 309 307 300 306 321 327 338 343 340
178 180 175 178 180 177 181 187 191 195 194 196 196 204 202 199 190 195 198 199 200 207 203 195 203 210 220 234 249 263 274 279 280 283 287 284 289 297 303 302 301 309 314
184 185 183 182 182 182 184 189 195 199 204 208 211 210 217 212 195 210 210 216 215 208 204 204 213 223 231 242 254 262 271 278 287 290 290 288 287 285 285 289 290 291 298
188 190 192 192 191 188 190 192 196 201 205 207 207 207 214 212 203 211 226 225 228 224 215 215 221 224 234 247 264 270 275 280 286 289 290 288 285 284 283 282 287 288 284
192 194 196 196 198 200 200 199 203 206 206 206 211 213 214 216 217 219 225 225 229 236 241 244 251 252 250 253 260 270 274 279 283 285 286 286 284 284 286 284 285 286 285
198 200 200 201 202 203 207 209 210 211 214 217 217 217 217 221 223 224 226 228 229 235 239 247 251 253 256 258 262 268 273 278 282 283 283 282 283 283 283 284 286 287 286
206 206 206 205 207 208 209 211 214 216 219 221 223 224 225 227 227 229 233 238 241 244 247 253 255 254 257 264 271 275 277 277 279 283 284 281 282 284 285 286 287 287 287
212 214 211 210 211 213 214 216 218 218 220 223 227 229 229 232 233 236 236 239 241 244 248 250 252 254 261 268 274 278 280 280 279 281 285 288 286 285 287 288 287 287 286
214 215 216 213 213 215 218 221 221 223 225 228 232 234 235 235 235 239 243 245 248 250 250 253 255 259 264 269 272 275 278 278 280 282 286 290 294 293 288 287 286 285 284
216 218 217 217 216 218 221 224 225 225 226 231 235 237 237 239 240 243 247 248 249 251 252 253 257 263 267 269 274 278 281 281 281 283 287 292 294 294 293 289 288 290 290
221 221 221 218 217 217 221 226 228 227 228 229 229 230 231 233 236 242 249 251 251 250 251 253 256 260 264 272 279 284 284 284 285 286 288 289 286 286 286 290 291 292 299
224 225 225 224 221 218 220 222 225 226 228 228 229 230 232 236 237 243 251 256 260 259 255 258 264 269 274 277 282 283 286 286 292 291 290 288 287 282 283 273 287 288 292
228 227 224 226 222 220 220 221 223 225 227 232 232 233 235 239 243 246 252 255 266 274 275 265 266 269 274 272 279 284 288 289 293 283 285 266 286 290 285 288 287 284 288
234 232 229 227 227 224 225 227 229 230 229 234 236 239 242 244 246 249 250 256 260 270 271 263 265 272 274 279 272 288 299 294 300 241 260 284 289 288 294 293 290 288 286
236 236 234 231 230 229 228 230 230 233 237 237 238 238 239 241 245 251 255 258 260 263 264 262 263 265 271 275 269 254 282 268 295 283 292 296 294 307 304 294 292 287 289
241 238 236 234 234 233 229 232 235 236 239 239 238 235 231 232 241 247 249 255 256 262 266 267 264 264 265 266 268 269 267 273 277 289 282 291 291 303 304 295 291 290 291
238 235 234 234 233 233 232 233 237 237 239 241 239 234 230 225 232 238 244 252 255 257 265 267 261 260 261 265 268 270 270 270 265 266 282 286 285 289 291 289 291 288 290
239 235 232 231 231 231 233 232 234 238 235 238 241 240 238 233 232 238 248 254 254 257 263 268 261 258 260 264 266 267 266 259 268 268 273 280 286 280 283 284 293 297 297